Location: Unnamed
(51.5169°N, 0.1311°W)
Time: 20:27:28
(UTC+01:00)

Tiros 1 - Pass Details

Date: 08 August 2024
Orbit: 623 x 655 km, 48.4° (Epoch: 16 September)

Event Time Altitude Azimuth Distance (km) Brightness Sun altitude
Rises 08:43:41 0° 246° (WSW) 2,975 10.1 27.5°
Reaches altitude 10° 08:46:04 10° 242° (WSW) 2,064 9.4 27.9°
Maximum altitude 08:50:41 51° 167° (SSE) 821 8.3 28.6°
Drops below altitude 10° 08:55:17 10° 92° (E) 2,058 11.3 29.3°
Sets 08:57:40 0° 87° (E) 2,965 11.7 29.7°
